Year,Month,Day,Hour,Minute,Value (Times are PST for temperature in C)
2014,07,22,00,00,12.00
2014,07,22,00,01,12.10
2014,07,22,00,02,12.10
2014,07,22,00,03,12.10
2014,07,22,00,04,12.20
2014,07,22,00,05,12.20
2014,07,22,00,06,12.20
2014,07,22,00,07,12.30
2014,07,22,00,08,12.30
2014,07,22,00,09,12.20
2014,07,22,00,10,12.20
2014,07,22,00,11,12.20
2014,07,22,00,12,12.20
2014,07,22,00,13,12.20
2014,07,22,00,14,12.10
2014,07,22,00,15,12.10
2014,07,22,00,16,12.10
2014,07,22,00,17,12.10
2014,07,22,00,18,12.10
2014,07,22,00,19,12.10
2014,07,22,00,20,12.20
2014,07,22,00,21,12.30
2014,07,22,00,22,12.40
2014,07,22,00,23,12.40
2014,07,22,00,24,12.50
2014,07,22,00,25,12.60
2014,07,22,00,26,12.60
2014,07,22,00,27,12.60
2014,07,22,00,28,12.60
2014,07,22,00,29,12.70
2014,07,22,00,30,12.70
2014,07,22,00,31,12.80
2014,07,22,00,32,12.90
2014,07,22,00,33,12.90
2014,07,22,00,34,12.90
2014,07,22,00,35,12.90
2014,07,22,00,36,12.90
2014,07,22,00,37,12.90
2014,07,22,00,38,12.80
2014,07,22,00,39,12.80
2014,07,22,00,40,12.80
2014,07,22,00,41,12.80
2014,07,22,00,42,12.70
2014,07,22,00,43,12.70
2014,07,22,00,44,12.60
2014,07,22,00,45,12.60
2014,07,22,00,46,12.60
2014,07,22,00,47,12.60
2014,07,22,00,48,12.60
2014,07,22,00,49,12.60
2014,07,22,00,50,12.50
2014,07,22,00,51,12.50
2014,07,22,00,52,12.50
2014,07,22,00,53,12.50
2014,07,22,00,54,12.40
2014,07,22,00,55,12.40
2014,07,22,00,56,12.30
2014,07,22,00,57,12.30
2014,07,22,00,58,12.30
2014,07,22,00,59,12.20
2014,07,22,01,00,12.20
2014,07,22,01,01,12.10
2014,07,22,01,02,12.10
2014,07,22,01,03,12.10
2014,07,22,01,04,12.10
2014,07,22,01,05,12.10
2014,07,22,01,06,12.10
2014,07,22,01,07,12.10
2014,07,22,01,08,12.10
2014,07,22,01,09,12.00
2014,07,22,01,10,12.00
2014,07,22,01,11,11.90
2014,07,22,01,12,11.90
2014,07,22,01,13,11.80
2014,07,22,01,14,11.80
2014,07,22,01,15,11.80
2014,07,22,01,16,11.70
2014,07,22,01,17,11.70
2014,07,22,01,18,11.70
2014,07,22,01,19,11.70
2014,07,22,01,20,11.60
2014,07,22,01,21,11.60
2014,07,22,01,22,11.60
2014,07,22,01,23,11.60
2014,07,22,01,24,11.60
2014,07,22,01,25,11.60
2014,07,22,01,26,11.60
2014,07,22,01,27,11.50
2014,07,22,01,28,11.50
2014,07,22,01,29,11.50
2014,07,22,01,30,11.50
2014,07,22,01,31,11.50
2014,07,22,01,32,11.50
2014,07,22,01,33,11.40
2014,07,22,01,34,11.40
2014,07,22,01,35,11.40
2014,07,22,01,36,11.40
2014,07,22,01,37,11.40
2014,07,22,01,38,11.40
2014,07,22,01,39,11.30
2014,07,22,01,40,11.30
2014,07,22,01,41,11.30
2014,07,22,01,42,11.30
2014,07,22,01,43,11.30
2014,07,22,01,44,11.30
2014,07,22,01,45,11.30
2014,07,22,01,46,11.20
2014,07,22,01,47,11.20
2014,07,22,01,48,11.20
2014,07,22,01,49,11.20
2014,07,22,01,50,11.20
2014,07,22,01,51,11.20
2014,07,22,01,52,11.20
2014,07,22,01,53,11.20
2014,07,22,01,54,11.20
2014,07,22,01,55,11.10
2014,07,22,01,56,11.10
2014,07,22,01,57,11.10
2014,07,22,01,58,11.10
2014,07,22,01,59,11.10
2014,07,22,02,00,11.10
2014,07,22,02,01,11.20
2014,07,22,02,02,11.20
2014,07,22,02,03,11.20
2014,07,22,02,04,11.30
2014,07,22,02,05,11.30
2014,07,22,02,06,11.30
2014,07,22,02,07,11.30
2014,07,22,02,08,11.30
2014,07,22,02,09,11.30
2014,07,22,02,10,11.30
2014,07,22,02,11,11.30
2014,07,22,02,12,11.30
2014,07,22,02,13,11.30
2014,07,22,02,14,11.30
2014,07,22,02,15,11.30
2014,07,22,02,16,11.30
2014,07,22,02,17,11.30
2014,07,22,02,18,11.30
2014,07,22,02,19,11.30
2014,07,22,02,20,11.30
2014,07,22,02,21,11.30
2014,07,22,02,22,11.30
2014,07,22,02,23,11.30
2014,07,22,02,24,11.20
2014,07,22,02,25,11.20
2014,07,22,02,26,11.20
2014,07,22,02,27,11.20
2014,07,22,02,28,11.10
2014,07,22,02,29,11.10
2014,07,22,02,30,11.10
2014,07,22,02,31,11.00
2014,07,22,02,32,11.00
2014,07,22,02,33,11.00
2014,07,22,02,34,11.00
2014,07,22,02,35,11.00
2014,07,22,02,36,11.00
2014,07,22,02,37,11.00
2014,07,22,02,38,11.10
2014,07,22,02,39,11.10
2014,07,22,02,40,11.10
2014,07,22,02,41,11.10
2014,07,22,02,42,11.10
2014,07,22,02,43,11.20
2014,07,22,02,44,11.20
2014,07,22,02,45,11.20
2014,07,22,02,46,11.20
2014,07,22,02,47,11.20
2014,07,22,02,48,11.20
2014,07,22,02,49,11.20
2014,07,22,02,50,11.20
2014,07,22,02,51,11.20
2014,07,22,02,52,11.20
2014,07,22,02,53,11.20
2014,07,22,02,54,11.20
2014,07,22,02,55,11.20
2014,07,22,02,56,11.20
2014,07,22,02,57,11.10
2014,07,22,02,58,11.10
2014,07,22,02,59,11.10
2014,07,22,03,00,11.00
2014,07,22,03,01,11.00
2014,07,22,03,02,10.90
2014,07,22,03,03,10.90
2014,07,22,03,04,10.90
2014,07,22,03,05,10.80
2014,07,22,03,06,10.80
2014,07,22,03,07,10.80
2014,07,22,03,08,10.80
2014,07,22,03,09,10.80
2014,07,22,03,10,10.70
2014,07,22,03,11,10.70
2014,07,22,03,12,10.70
2014,07,22,03,13,10.70
2014,07,22,03,14,10.70
2014,07,22,03,15,10.70
2014,07,22,03,16,10.70
2014,07,22,03,17,10.70
2014,07,22,03,18,10.70
2014,07,22,03,19,10.70
2014,07,22,03,20,10.70
2014,07,22,03,21,10.70
2014,07,22,03,22,10.70
2014,07,22,03,23,10.70
2014,07,22,03,24,10.60
2014,07,22,03,25,10.60
2014,07,22,03,26,10.60
2014,07,22,03,27,10.60
2014,07,22,03,28,10.60
2014,07,22,03,29,10.60
2014,07,22,03,30,10.60
2014,07,22,03,31,10.60
2014,07,22,03,32,10.60
2014,07,22,03,33,10.60
2014,07,22,03,34,10.60
2014,07,22,03,35,10.60
2014,07,22,03,36,10.60
2014,07,22,03,37,10.60
2014,07,22,03,38,10.60
2014,07,22,03,39,10.50
2014,07,22,03,40,10.50
2014,07,22,03,41,10.50
2014,07,22,03,42,10.50
2014,07,22,03,43,10.50
2014,07,22,03,44,10.40
2014,07,22,03,45,10.40
2014,07,22,03,46,10.40
2014,07,22,03,47,10.40
2014,07,22,03,48,10.40
2014,07,22,03,49,10.40
2014,07,22,03,50,10.30
2014,07,22,03,51,10.30
2014,07,22,03,52,10.30
2014,07,22,03,53,10.30
2014,07,22,03,54,10.20
2014,07,22,03,55,10.20
2014,07,22,03,56,10.20
2014,07,22,03,57,10.20
2014,07,22,03,58,10.10
2014,07,22,03,59,10.10
2014,07,22,04,00,10.10
2014,07,22,04,01,10.00
2014,07,22,04,02,10.00
2014,07,22,04,03,10.00
2014,07,22,04,04,9.90
2014,07,22,04,05,9.90
2014,07,22,04,06,9.90
2014,07,22,04,07,9.90
2014,07,22,04,08,9.90
2014,07,22,04,09,9.80
2014,07,22,04,10,9.80
2014,07,22,04,11,9.80
2014,07,22,04,12,9.80
2014,07,22,04,13,9.80
2014,07,22,04,14,9.70
2014,07,22,04,15,9.70
2014,07,22,04,16,9.70
2014,07,22,04,17,9.70
2014,07,22,04,18,9.70
2014,07,22,04,19,9.70
2014,07,22,04,20,9.70
2014,07,22,04,21,9.70
2014,07,22,04,22,9.70
2014,07,22,04,23,9.70
2014,07,22,04,24,9.70
2014,07,22,04,25,9.70
2014,07,22,04,26,9.70
2014,07,22,04,27,9.70
2014,07,22,04,28,9.70
2014,07,22,04,29,9.70
2014,07,22,04,30,9.70
2014,07,22,04,31,9.70
2014,07,22,04,32,9.80
2014,07,22,04,33,9.80
2014,07,22,04,34,9.80
2014,07,22,04,35,9.80
2014,07,22,04,36,9.80
2014,07,22,04,37,9.80
2014,07,22,04,38,9.80
2014,07,22,04,39,9.70
2014,07,22,04,40,9.70
2014,07,22,04,41,9.70
2014,07,22,04,42,9.70
2014,07,22,04,43,9.70
2014,07,22,04,44,9.70
2014,07,22,04,45,9.70
2014,07,22,04,46,9.70
2014,07,22,04,47,9.70
2014,07,22,04,48,9.70
2014,07,22,04,49,9.70
2014,07,22,04,50,9.60
2014,07,22,04,51,9.60
2014,07,22,04,52,9.60
2014,07,22,04,53,9.60
2014,07,22,04,54,9.60
2014,07,22,04,55,9.60
2014,07,22,04,56,9.60
2014,07,22,04,57,9.60
2014,07,22,04,58,9.60
2014,07,22,04,59,9.60
2014,07,22,05,00,9.60
2014,07,22,05,01,9.50
2014,07,22,05,02,9.50
2014,07,22,05,03,9.50
2014,07,22,05,04,9.50
2014,07,22,05,05,9.40
2014,07,22,05,06,9.40
2014,07,22,05,07,9.40
2014,07,22,05,08,9.40
2014,07,22,05,09,9.40
2014,07,22,05,10,9.40
2014,07,22,05,11,9.40
2014,07,22,05,12,9.40
2014,07,22,05,13,9.40
2014,07,22,05,14,9.40
2014,07,22,05,15,9.30
2014,07,22,05,16,9.30
2014,07,22,05,17,9.40
2014,07,22,05,18,9.40
2014,07,22,05,19,9.40
2014,07,22,05,20,9.40
2014,07,22,05,21,9.40
2014,07,22,05,22,9.40
2014,07,22,05,23,9.40
2014,07,22,05,24,9.30
2014,07,22,05,25,9.30
2014,07,22,05,26,9.30
2014,07,22,05,27,9.30
2014,07,22,05,28,9.30
2014,07,22,05,29,9.30
2014,07,22,05,30,9.30
2014,07,22,05,31,9.30
2014,07,22,05,32,9.30
2014,07,22,05,33,9.30
2014,07,22,05,34,9.30
2014,07,22,05,35,9.30
2014,07,22,05,36,9.30
2014,07,22,05,37,9.30
2014,07,22,05,38,9.30
2014,07,22,05,39,9.30
2014,07,22,05,40,9.30
2014,07,22,05,41,9.30
2014,07,22,05,42,9.30
2014,07,22,05,43,9.20
2014,07,22,05,44,9.20
2014,07,22,05,45,9.20
2014,07,22,05,46,9.20
2014,07,22,05,47,9.30
2014,07,22,05,48,9.30
2014,07,22,05,49,9.30
2014,07,22,05,50,9.30
2014,07,22,05,51,9.20
2014,07,22,05,52,9.20
2014,07,22,05,53,9.20
2014,07,22,05,54,9.20
2014,07,22,05,55,9.20
2014,07,22,05,56,9.20
2014,07,22,05,57,9.10
2014,07,22,05,58,9.10
2014,07,22,05,59,9.10
2014,07,22,06,00,9.10
2014,07,22,06,01,9.10
2014,07,22,06,02,9.10
2014,07,22,06,03,9.10
2014,07,22,06,04,9.10
2014,07,22,06,05,9.10
2014,07,22,06,06,9.10
2014,07,22,06,07,9.10
2014,07,22,06,08,9.10
2014,07,22,06,09,9.00
2014,07,22,06,10,9.00
2014,07,22,06,11,9.00
2014,07,22,06,12,9.10
2014,07,22,06,13,9.10
2014,07,22,06,14,9.10
2014,07,22,06,15,9.10
2014,07,22,06,16,9.10
2014,07,22,06,17,9.10
2014,07,22,06,18,9.10
2014,07,22,06,19,9.10
2014,07,22,06,20,9.10
2014,07,22,06,21,9.10
2014,07,22,06,22,9.10
2014,07,22,06,23,9.10
2014,07,22,06,24,9.10
2014,07,22,06,25,9.10
2014,07,22,06,26,9.10
2014,07,22,06,27,9.10
2014,07,22,06,28,9.10
2014,07,22,06,29,9.00
2014,07,22,06,30,9.00
2014,07,22,06,31,9.00
2014,07,22,06,32,9.00
2014,07,22,06,33,9.00
2014,07,22,06,34,9.00
2014,07,22,06,35,9.10
2014,07,22,06,36,9.00
2014,07,22,06,37,9.00
2014,07,22,06,38,9.00
2014,07,22,06,39,9.10
2014,07,22,06,40,9.10
2014,07,22,06,41,9.10
2014,07,22,06,42,9.10
2014,07,22,06,43,9.10
2014,07,22,06,44,9.10
2014,07,22,06,45,9.10
2014,07,22,06,46,9.10
2014,07,22,06,47,9.20
2014,07,22,06,48,9.20
2014,07,22,06,49,9.20
2014,07,22,06,50,9.20
2014,07,22,06,51,9.30
2014,07,22,06,52,9.30
2014,07,22,06,53,9.30
2014,07,22,06,54,9.30
2014,07,22,06,55,9.30
2014,07,22,06,56,9.30
2014,07,22,06,57,9.30
2014,07,22,06,58,9.30
2014,07,22,06,59,9.30
2014,07,22,07,00,9.30
2014,07,22,07,01,9.40
2014,07,22,07,02,9.40
2014,07,22,07,03,9.40
2014,07,22,07,04,9.40
2014,07,22,07,05,9.40
2014,07,22,07,06,9.40
2014,07,22,07,07,9.40
2014,07,22,07,08,9.40
2014,07,22,07,09,9.40
2014,07,22,07,10,9.40
2014,07,22,07,11,9.40
2014,07,22,07,12,9.40
2014,07,22,07,13,9.50
2014,07,22,07,14,9.50
2014,07,22,07,15,9.50
2014,07,22,07,16,9.50
2014,07,22,07,17,9.60
2014,07,22,07,18,9.60
2014,07,22,07,19,9.60
2014,07,22,07,20,9.60
2014,07,22,07,21,9.60
2014,07,22,07,22,9.60
2014,07,22,07,23,9.60
2014,07,22,07,24,9.70
2014,07,22,07,25,9.70
2014,07,22,07,26,9.80
2014,07,22,07,27,9.80
2014,07,22,07,28,9.80
2014,07,22,07,29,9.90
2014,07,22,07,30,9.90
2014,07,22,07,31,10.00
2014,07,22,07,32,10.00
2014,07,22,07,33,10.10
2014,07,22,07,34,10.10
2014,07,22,07,35,10.20
2014,07,22,07,36,10.30
2014,07,22,07,37,10.30
2014,07,22,07,38,10.40
2014,07,22,07,39,10.50
2014,07,22,07,40,10.50
2014,07,22,07,41,10.60
2014,07,22,07,42,10.60
2014,07,22,07,43,10.60
2014,07,22,07,44,10.70
2014,07,22,07,45,10.80
2014,07,22,07,46,10.80
2014,07,22,07,47,10.90
2014,07,22,07,48,11.00
2014,07,22,07,49,11.10
2014,07,22,07,50,11.20
2014,07,22,07,51,11.20
2014,07,22,07,52,11.30
2014,07,22,07,53,11.40
2014,07,22,07,54,11.40
2014,07,22,07,55,11.50
2014,07,22,07,56,11.60
2014,07,22,07,57,11.60
2014,07,22,07,58,11.70
2014,07,22,07,59,11.80
2014,07,22,08,00,11.80
2014,07,22,08,01,11.90
2014,07,22,08,02,11.90
2014,07,22,08,03,12.00
2014,07,22,08,04,12.20
2014,07,22,08,05,12.30
2014,07,22,08,06,12.40
2014,07,22,08,07,12.50
2014,07,22,08,08,12.60
2014,07,22,08,09,12.70
2014,07,22,08,10,12.80
2014,07,22,08,11,12.90
2014,07,22,08,12,13.00
2014,07,22,08,13,13.10
2014,07,22,08,14,13.10
2014,07,22,08,15,13.20
2014,07,22,08,16,13.30
2014,07,22,08,17,13.40
2014,07,22,08,18,13.50
2014,07,22,08,19,13.60
2014,07,22,08,20,13.60
2014,07,22,08,21,13.70
2014,07,22,08,22,13.80
2014,07,22,08,23,13.80
2014,07,22,08,24,13.90
2014,07,22,08,25,14.00
2014,07,22,08,26,14.00
2014,07,22,08,27,14.10
2014,07,22,08,28,14.10
2014,07,22,08,29,14.20
2014,07,22,08,30,14.30
2014,07,22,08,31,14.30
2014,07,22,08,32,14.40
2014,07,22,08,33,14.50
2014,07,22,08,34,14.50
2014,07,22,08,35,14.60
2014,07,22,08,36,14.60
2014,07,22,08,37,14.70
2014,07,22,08,38,14.70
2014,07,22,08,39,14.80
2014,07,22,08,40,14.80
2014,07,22,08,41,14.80
2014,07,22,08,42,14.90
2014,07,22,08,43,14.90
2014,07,22,08,44,15.00
2014,07,22,08,45,15.00
2014,07,22,08,46,15.00
2014,07,22,08,47,15.00
2014,07,22,08,48,15.00
2014,07,22,08,49,15.00
2014,07,22,08,50,15.10
2014,07,22,08,51,15.20
2014,07,22,08,52,15.20
2014,07,22,08,53,15.30
2014,07,22,08,54,15.30
2014,07,22,08,55,15.30
2014,07,22,08,56,15.30
2014,07,22,08,57,15.40
2014,07,22,08,58,15.40
2014,07,22,08,59,15.40
2014,07,22,09,00,15.40
2014,07,22,09,01,15.40
2014,07,22,09,02,15.40
2014,07,22,09,03,15.40
2014,07,22,09,04,15.40
2014,07,22,09,05,15.40
2014,07,22,09,06,15.40
2014,07,22,09,07,15.50
2014,07,22,09,08,15.60
2014,07,22,09,09,15.60
2014,07,22,09,10,15.70
2014,07,22,09,11,15.70
2014,07,22,09,12,15.80
2014,07,22,09,13,15.80
2014,07,22,09,14,15.90
2014,07,22,09,15,15.90
2014,07,22,09,16,15.90
2014,07,22,09,17,16.00
2014,07,22,09,18,16.00
2014,07,22,09,19,16.10
2014,07,22,09,20,16.20
2014,07,22,09,21,16.20
2014,07,22,09,22,16.20
2014,07,22,09,23,16.40
2014,07,22,09,24,16.50
2014,07,22,09,25,16.50
2014,07,22,09,26,16.60
2014,07,22,09,27,16.70
2014,07,22,09,28,16.80
2014,07,22,09,29,16.90
2014,07,22,09,30,17.00
2014,07,22,09,31,17.10
2014,07,22,09,32,17.10
2014,07,22,09,33,17.10
2014,07,22,09,34,17.20
2014,07,22,09,35,17.20
2014,07,22,09,36,17.20
2014,07,22,09,37,17.20
2014,07,22,09,38,17.30
2014,07,22,09,39,17.30
2014,07,22,09,40,17.40
2014,07,22,09,41,17.50
2014,07,22,09,42,17.60
2014,07,22,09,43,17.70
2014,07,22,09,44,17.80
2014,07,22,09,45,17.80
2014,07,22,09,46,17.90
2014,07,22,09,47,17.90
2014,07,22,09,48,18.00
2014,07,22,09,49,17.90
2014,07,22,09,50,17.90
2014,07,22,09,51,17.90
2014,07,22,09,52,17.90
2014,07,22,09,53,17.90
2014,07,22,09,54,17.90
2014,07,22,09,55,17.90
2014,07,22,09,56,17.90
2014,07,22,09,57,17.80
2014,07,22,09,58,17.90
2014,07,22,09,59,17.90
2014,07,22,10,00,18.00
2014,07,22,10,01,18.10
2014,07,22,10,02,18.20
2014,07,22,10,03,18.20
2014,07,22,10,04,18.30
2014,07,22,10,05,18.30
2014,07,22,10,06,18.30
2014,07,22,10,07,18.30
2014,07,22,10,08,18.40
2014,07,22,10,09,18.50
2014,07,22,10,10,18.50
2014,07,22,10,11,18.60
2014,07,22,10,12,18.60
2014,07,22,10,13,18.60
2014,07,22,10,14,18.60
2014,07,22,10,15,18.70
2014,07,22,10,16,18.70
2014,07,22,10,17,18.70
2014,07,22,10,18,18.70
2014,07,22,10,19,18.80
2014,07,22,10,20,18.90
2014,07,22,10,21,19.00
2014,07,22,10,22,19.10
2014,07,22,10,23,19.30
2014,07,22,10,24,19.30
2014,07,22,10,25,19.30
2014,07,22,10,26,19.20
2014,07,22,10,27,19.20
2014,07,22,10,28,19.10
2014,07,22,10,29,19.10
2014,07,22,10,30,19.00
2014,07,22,10,31,19.00
2014,07,22,10,32,19.00
2014,07,22,10,33,19.00
2014,07,22,10,34,18.90
2014,07,22,10,35,18.90
2014,07,22,10,36,18.90
2014,07,22,10,37,19.00
2014,07,22,10,38,19.10
2014,07,22,10,39,19.10
2014,07,22,10,40,19.10
2014,07,22,10,41,19.10
2014,07,22,10,42,19.20
2014,07,22,10,43,19.20
2014,07,22,10,44,19.30
2014,07,22,10,45,19.40
2014,07,22,10,46,19.50
2014,07,22,10,47,19.60
2014,07,22,10,48,19.70
2014,07,22,10,49,19.80
2014,07,22,10,50,19.80
2014,07,22,10,51,19.90
2014,07,22,10,52,19.90
2014,07,22,10,53,19.90
2014,07,22,10,54,19.90
2014,07,22,10,55,19.90
2014,07,22,10,56,19.90
2014,07,22,10,57,19.90
2014,07,22,10,58,20.00
2014,07,22,10,59,20.10
2014,07,22,11,00,20.20
2014,07,22,11,01,20.20
2014,07,22,11,02,20.30
2014,07,22,11,03,20.40
2014,07,22,11,04,20.50
2014,07,22,11,05,20.60
2014,07,22,11,06,20.70
2014,07,22,11,07,20.70
2014,07,22,11,08,20.70
2014,07,22,11,09,20.70
2014,07,22,11,10,20.70
2014,07,22,11,11,20.70
2014,07,22,11,12,20.80
2014,07,22,11,13,20.80
2014,07,22,11,14,20.90
2014,07,22,11,15,20.90
2014,07,22,11,16,21.10
2014,07,22,11,17,21.20
2014,07,22,11,18,21.30
2014,07,22,11,19,21.40
2014,07,22,11,20,21.40
2014,07,22,11,21,21.40
2014,07,22,11,22,21.40
2014,07,22,11,23,21.30
2014,07,22,11,24,21.30
2014,07,22,11,25,21.40
2014,07,22,11,26,21.50
2014,07,22,11,27,21.60
2014,07,22,11,28,21.60
2014,07,22,11,29,21.60
2014,07,22,11,30,21.60
2014,07,22,11,31,21.60
2014,07,22,11,32,21.80
2014,07,22,11,33,21.70
2014,07,22,11,34,21.60
2014,07,22,11,35,21.50
2014,07,22,11,36,21.50
2014,07,22,11,37,21.40
2014,07,22,11,38,21.30
2014,07,22,11,39,21.30
2014,07,22,11,40,21.20
2014,07,22,11,41,21.10
2014,07,22,11,42,21.10
2014,07,22,11,43,21.20
2014,07,22,11,44,21.30
2014,07,22,11,45,21.30
2014,07,22,11,46,21.20
2014,07,22,11,47,21.30
2014,07,22,11,48,21.40
2014,07,22,11,49,21.50
2014,07,22,11,50,21.60
2014,07,22,11,51,21.60
2014,07,22,11,52,21.60
2014,07,22,11,53,21.50
2014,07,22,11,54,21.50
2014,07,22,11,55,21.40
2014,07,22,11,56,21.30
2014,07,22,11,57,21.30
2014,07,22,11,58,21.30
2014,07,22,11,59,21.30
2014,07,22,12,00,21.30
2014,07,22,12,01,21.30
2014,07,22,12,02,21.30
2014,07,22,12,03,21.20
2014,07,22,12,04,21.20
2014,07,22,12,05,21.20
2014,07,22,12,06,21.30
2014,07,22,12,07,21.40
2014,07,22,12,08,21.40
2014,07,22,12,09,21.60
2014,07,22,12,10,21.70
2014,07,22,12,11,21.70
2014,07,22,12,12,21.80
2014,07,22,12,13,21.70
2014,07,22,12,14,21.80
2014,07,22,12,15,21.70
2014,07,22,12,16,21.70
2014,07,22,12,17,21.60
2014,07,22,12,18,21.60
2014,07,22,12,19,21.50
2014,07,22,12,20,21.40
2014,07,22,12,21,21.30
2014,07,22,12,22,21.20
2014,07,22,12,23,21.30
2014,07,22,12,24,21.30
2014,07,22,12,25,21.30
2014,07,22,12,26,21.30
2014,07,22,12,27,21.50
2014,07,22,12,28,21.50
2014,07,22,12,29,21.60
2014,07,22,12,30,21.60
2014,07,22,12,31,21.70
2014,07,22,12,32,21.80
2014,07,22,12,33,22.00
2014,07,22,12,34,22.20
2014,07,22,12,35,22.40
2014,07,22,12,36,22.60
2014,07,22,12,37,22.80
2014,07,22,12,38,22.90
2014,07,22,12,39,23.10
2014,07,22,12,40,23.20
2014,07,22,12,41,23.20
2014,07,22,12,42,23.20
2014,07,22,12,43,23.20
2014,07,22,12,44,23.00
2014,07,22,12,45,22.60
2014,07,22,12,46,22.40
2014,07,22,12,47,22.30
2014,07,22,12,48,22.30
2014,07,22,12,49,22.30
2014,07,22,12,50,22.40
2014,07,22,12,51,22.50
2014,07,22,12,52,22.60
2014,07,22,12,53,22.70
2014,07,22,12,54,22.70
2014,07,22,12,55,22.70
2014,07,22,12,56,22.70
2014,07,22,12,57,22.80
2014,07,22,12,58,22.80
2014,07,22,12,59,22.80
2014,07,22,13,00,22.90
2014,07,22,13,01,22.90
2014,07,22,13,02,22.80
2014,07,22,13,03,22.70
2014,07,22,13,04,22.70
2014,07,22,13,05,22.70
2014,07,22,13,06,22.70
2014,07,22,13,07,22.80
2014,07,22,13,08,22.90
2014,07,22,13,09,23.00
2014,07,22,13,10,23.00
2014,07,22,13,11,23.00
2014,07,22,13,12,22.90
2014,07,22,13,13,22.90
2014,07,22,13,14,22.90
2014,07,22,13,15,23.00
2014,07,22,13,16,23.00
2014,07,22,13,17,23.10
2014,07,22,13,18,23.10
2014,07,22,13,19,23.20
2014,07,22,13,20,23.20
2014,07,22,13,21,23.20
2014,07,22,13,22,23.10
2014,07,22,13,23,23.10
2014,07,22,13,24,23.00
2014,07,22,13,25,23.00
2014,07,22,13,26,23.00
2014,07,22,13,27,23.10
2014,07,22,13,28,23.00
2014,07,22,13,29,23.00
2014,07,22,13,30,23.00
2014,07,22,13,31,23.00
2014,07,22,13,32,23.10
2014,07,22,13,33,23.20
2014,07,22,13,34,23.20
2014,07,22,13,35,23.10
2014,07,22,13,36,23.00
2014,07,22,13,37,23.00
2014,07,22,13,38,23.10
2014,07,22,13,39,23.20
2014,07,22,13,40,23.20
2014,07,22,13,41,23.30
2014,07,22,13,42,23.30
2014,07,22,13,43,23.30
2014,07,22,13,44,23.40
2014,07,22,13,45,23.40
2014,07,22,13,46,23.40
2014,07,22,13,47,23.50
2014,07,22,13,48,23.50
2014,07,22,13,49,23.60
2014,07,22,13,50,23.60
2014,07,22,13,51,23.70
2014,07,22,13,52,23.80
2014,07,22,13,53,23.80
2014,07,22,13,54,23.90
2014,07,22,13,55,24.00
2014,07,22,13,56,24.10
2014,07,22,13,57,24.10
2014,07,22,13,58,24.00
2014,07,22,13,59,23.80
2014,07,22,14,00,23.70
2014,07,22,14,01,23.50
2014,07,22,14,02,23.40
2014,07,22,14,03,23.20
2014,07,22,14,04,23.20
2014,07,22,14,05,23.20
2014,07,22,14,06,23.30
2014,07,22,14,07,23.40
2014,07,22,14,08,23.60
2014,07,22,14,09,23.70
2014,07,22,14,10,23.80
2014,07,22,14,11,23.90
2014,07,22,14,12,24.00
2014,07,22,14,13,24.20
2014,07,22,14,14,24.30
2014,07,22,14,15,24.50
2014,07,22,14,16,24.60
2014,07,22,14,17,24.70
2014,07,22,14,18,24.80
2014,07,22,14,19,24.90
2014,07,22,14,20,24.90
2014,07,22,14,21,25.00
2014,07,22,14,22,25.10
2014,07,22,14,23,25.10
2014,07,22,14,24,25.00
2014,07,22,14,25,24.90
2014,07,22,14,26,24.80
2014,07,22,14,27,24.70
2014,07,22,14,28,24.60
2014,07,22,14,29,24.50
2014,07,22,14,30,24.50
2014,07,22,14,31,24.60
2014,07,22,14,32,24.60
2014,07,22,14,33,24.70
2014,07,22,14,34,24.80
2014,07,22,14,35,24.80
2014,07,22,14,36,24.70
2014,07,22,14,37,24.60
2014,07,22,14,38,24.60
2014,07,22,14,39,24.50
2014,07,22,14,40,24.50
2014,07,22,14,41,24.60
2014,07,22,14,42,24.70
2014,07,22,14,43,24.70
2014,07,22,14,44,24.70
2014,07,22,14,45,24.70
2014,07,22,14,46,24.70
2014,07,22,14,47,24.60
2014,07,22,14,48,24.70
2014,07,22,14,49,24.80
2014,07,22,14,50,24.80
2014,07,22,14,51,24.80
2014,07,22,14,52,24.70
2014,07,22,14,53,24.70
2014,07,22,14,54,24.60
2014,07,22,14,55,24.60
2014,07,22,14,56,24.50
2014,07,22,14,57,24.40
2014,07,22,14,58,24.30
2014,07,22,14,59,24.30
2014,07,22,15,00,24.30
2014,07,22,15,01,24.30
2014,07,22,15,02,24.20
2014,07,22,15,03,24.30
2014,07,22,15,04,24.30
2014,07,22,15,05,24.40
2014,07,22,15,06,24.50
2014,07,22,15,07,24.50
2014,07,22,15,08,24.50
2014,07,22,15,09,24.40
2014,07,22,15,10,24.20
2014,07,22,15,11,24.10
2014,07,22,15,12,24.00
2014,07,22,15,13,24.00
2014,07,22,15,14,24.10
2014,07,22,15,15,24.20
2014,07,22,15,16,24.30
2014,07,22,15,17,24.40
2014,07,22,15,18,24.40
2014,07,22,15,19,24.40
2014,07,22,15,20,24.50
2014,07,22,15,21,24.50
2014,07,22,15,22,24.50
2014,07,22,15,23,24.40
2014,07,22,15,24,24.30
2014,07,22,15,25,24.10
2014,07,22,15,26,24.00
2014,07,22,15,27,23.90
2014,07,22,15,28,23.90
2014,07,22,15,29,23.90
2014,07,22,15,30,23.90
2014,07,22,15,31,23.80
2014,07,22,15,32,23.70
2014,07,22,15,33,23.40
2014,07,22,15,34,23.20
2014,07,22,15,35,23.00
2014,07,22,15,36,22.90
2014,07,22,15,37,22.90
2014,07,22,15,38,22.90
2014,07,22,15,39,22.90
2014,07,22,15,40,23.00
2014,07,22,15,41,23.00
2014,07,22,15,42,23.00
2014,07,22,15,43,23.10
2014,07,22,15,44,23.10
2014,07,22,15,45,23.10
2014,07,22,15,46,23.00
2014,07,22,15,47,22.90
2014,07,22,15,48,22.80
2014,07,22,15,49,22.70
2014,07,22,15,50,22.70
2014,07,22,15,51,22.70
2014,07,22,15,52,22.80
2014,07,22,15,53,22.80
2014,07,22,15,54,22.90
2014,07,22,15,55,23.00
2014,07,22,15,56,23.10
2014,07,22,15,57,23.10
2014,07,22,15,58,23.20
2014,07,22,15,59,23.20
2014,07,22,16,00,23.20
2014,07,22,16,01,23.20
2014,07,22,16,02,23.20
2014,07,22,16,03,23.20
2014,07,22,16,04,23.30
2014,07,22,16,05,23.30
2014,07,22,16,06,23.20
2014,07,22,16,07,23.20
2014,07,22,16,08,23.20
2014,07,22,16,09,23.10
2014,07,22,16,10,23.00
2014,07,22,16,11,22.90
2014,07,22,16,12,22.90
2014,07,22,16,13,22.90
2014,07,22,16,14,22.90
2014,07,22,16,15,22.90
2014,07,22,16,16,22.80
2014,07,22,16,17,22.60
2014,07,22,16,18,22.50
2014,07,22,16,19,22.40
2014,07,22,16,20,22.40
2014,07,22,16,21,22.50
2014,07,22,16,22,22.50
2014,07,22,16,23,22.60
2014,07,22,16,24,22.60
2014,07,22,16,25,22.60
2014,07,22,16,26,22.70
2014,07,22,16,27,22.80
2014,07,22,16,28,22.90
2014,07,22,16,29,22.90
2014,07,22,16,30,22.90
2014,07,22,16,31,22.80
2014,07,22,16,32,22.80
2014,07,22,16,33,22.70
2014,07,22,16,34,22.60
2014,07,22,16,35,22.40
2014,07,22,16,36,22.30
2014,07,22,16,37,22.20
2014,07,22,16,38,22.20
2014,07,22,16,39,22.10
2014,07,22,16,40,22.10
2014,07,22,16,41,22.10
2014,07,22,16,42,22.10
2014,07,22,16,43,22.10
2014,07,22,16,44,22.10
2014,07,22,16,45,22.10
2014,07,22,16,46,22.20
2014,07,22,16,47,22.20
2014,07,22,16,48,22.20
2014,07,22,16,49,22.30
2014,07,22,16,50,22.40
2014,07,22,16,51,22.50
2014,07,22,16,52,22.60
2014,07,22,16,53,22.70
2014,07,22,16,54,22.80
2014,07,22,16,55,22.70
2014,07,22,16,56,22.60
2014,07,22,16,57,22.60
2014,07,22,16,58,22.50
2014,07,22,16,59,22.30
2014,07,22,17,00,22.30
2014,07,22,17,01,22.30
2014,07,22,17,02,22.30
2014,07,22,17,03,22.30
2014,07,22,17,04,22.30
2014,07,22,17,05,22.30
2014,07,22,17,06,22.30
2014,07,22,17,07,22.30
2014,07,22,17,08,22.20
2014,07,22,17,09,22.20
2014,07,22,17,10,22.20
2014,07,22,17,11,22.10
2014,07,22,17,12,22.10
2014,07,22,17,13,22.10
2014,07,22,17,14,22.10
2014,07,22,17,15,22.20
2014,07,22,17,16,22.20
2014,07,22,17,17,22.20
2014,07,22,17,18,22.20
2014,07,22,17,19,22.20
2014,07,22,17,20,22.20
2014,07,22,17,21,22.20
2014,07,22,17,22,22.20
2014,07,22,17,23,22.20
2014,07,22,17,24,22.30
2014,07,22,17,25,22.30
2014,07,22,17,26,22.30
2014,07,22,17,27,22.30
2014,07,22,17,28,22.20